Location: Lecco
(45.8566°N, 9.3977°E)
Time: 12:22:39
(UTC+02:00)

Explorer 11/Cluster Stage 4 - Pass Details

Date: 18 August 2020
Orbit: 467 x 1258 km, 28.8° (Epoch: 24 September)

Event Time Altitude Azimuth Distance (km) Brightness Sun altitude
Rises 19:33:57 0° 204° (SSW) 3,435 10.1 7.8°
Reaches altitude 10° 19:38:50 10° 169° (S) 2,727 9.2 7.0°
Maximum altitude 19:40:26 11° 155° (SSE) 2,729 9.0 6.7°
Drops below altitude 10° 19:42:05 10° 142° (SE) 2,863 9.0 6.4°
Sets 19:47:46 0° 109° (ESE) 4,017 9.5 5.4°
